EHI
0 0 0 0 0 0 0 0 0 0 0 0 0 0 0 0 0 0 0 0 0 0 0 0 0 0 0 0 0 0 0 0 0 0 0 0 0 0 0 0 0 0 0
0 0 0 0 0 0 0 0 0 0 0 0 0 0 0 0 0 0 0 0 0 0 0 0 0 0 0 0 0 0 0 0 0 0 0 0 0 0 0 0 0 0 0
0 0 0 0 0 0 0 0 0 0 0 0 0 0 0 0 0 0 0 0 0 0 0 0 0 0 0 0 0 0 0 0 0 0 0 0 0 0 0 0 0 0 0
0 0 0 0 0 0 0 0 0 0 0 0 0 0 0 0 0 0 0 0 0 0 0 0 0 0 0 0 0 0 0 0 0 0 0 0 0 0 0 0 0 0 0
0 0 0 0 0 0 0 0 0 0 0 0 0 0 0 0 0 0 0 0 0 0 0 0 0 0 0 0 0 0 0 0 0 0 0 0 0 0 0 0 0 0 0
0 0 0 0 0 0 0 0 0 0 0 0 0 0 0 0 0 0 0 0 0 0 0 0 0 0 0 0 0 0 0 0 0 0 0 0 0 0 0 0 0 0 0
0 0 0 0 0 0 0 0 0 0 0 0 0 0 0 0 0 0 0 0 0 0 0 0 0 0 0 0 0 0 0 0 0 0 0 0 0 0 0 0 0 0 0
0 0 0 0 0 0 0 0 0 0 0 0 0 0 0 0 0 0 0 0 0 0 0 0 0 0 0 0 0 0 0 0 0 0 0 0 0 0 0 0 0 0 0
0 0 0 0 0 0 0 0 0 0 0 0 0 0 0 0 0 0 0 0 0 0 0 0 0 0 0 0 0 0 0 0 0 0 0 0 0 0 0 0 0 0 0
0 0 0 0 0 0 0 0 0 0 0 0 0 0 0 0 0 0 0 0 0 0 0 0 0 0 0 0 0 0 0 0 0 0 0 0 0 0 0 0 0 0 0
0 0 0 0 0 0 0 0 0 0 0 0 0 0 0 0 0 0 0 0 0 0 0 0 0 0 0 0 0 0 0 0 0 0 0 0 0 0 0 0 0 0 0
0 0 0 0 0 0 0 0 0 0 0 0 0 0 0 0 0 0 0 0 0 0 0 0 0 0 0 0 0 0 0 0 0 0 0 0 0 0 0 0 0 0 0
0 0 0 0 0 0 0 0 0 0 0 0 0 0 0 0 0 0 0 0 0 0 0 0 0 0 0 0 0 0 0 0 0 0 0 0 0 0 0 0 0 0 0
0 0 0 0 0 0 0 0 0 0 0 0 0 0 0 0 0 0 0 0 0 0 0 0 0 0 0 0 0 0 0 0 0 0 0 0 0 0 0 0 0 0 0
0 0 0 0 0 0 0 0 0 0 0 0 0 0 0 0 0 0 0 0 0 0 0 0 0 0 0 0 0 0 0 0 0 0 0 0 0 0 0 0 0 0 0
0 0 0 0 0 0 0 0 0 0 0 0 0 0 0 0 0 0 0 0 0 0 0 0 0 0 0 0 0 0 0 0 0 0 0 0 0 0 0 0 0 0 0
0 0 0 0 0 0 0 0 0 0 0 0 0 0 0 0 0 0 0 0 0 0 0 0 0 0 0 0 0 0 0 0 0 0 0 0 0 0 0 0 0 0 0
0 0 0 0 0 0 0 0 0 0 0 0 0 0 0 0 0 0 0 0 0 0 0 0 0 0 0 0 0 0 0 0 0 0 0 0 0 0 0 0 0 0 0
0 0 0 0 0 0 0 0 0 0 0 0 0 0 0 0 0 0 0 0 0 0 0 0 0 0 0 0 0 0 0 0 0 0 0 0 0 0 0 0 0 0 0
0 0 0 0 0 0 0 0 0 0 0 0 0 0 0 0 0 0 0 0 0 0 0 0 0 0 0 0 0 0 0 0 0 0 0 0 0 0 0 0 0 0 0
0 0 0 0 0 0 0 0 0 0 0 0 0 0 0 0 0 0 0 0 0 0 0 0 0 0 0 0 0 0 0 0 0 0 0 0 0 0 0 0 0 0 0
0 0 0 0 0 0 0 0 0 0 0 0 0 0 0 0 0 0 0 0 0 0 0 0 0 0 0 0 0 0 0 0 0 0 0 0 0 0 0 0 0 0 0
0 0 0 0 0 0 0 0 0 0 0 0 0 0 0 0 0 0 0 0 0 0 0 0 0 0 0 0 0 0 0 0 0 0 0 0 0 0 0 0 0 0 0
0 0 0 0 0 0 0 0 0 0 0 0 0 0 0 0 0 0 0 0 0 0 0 0 0 0 0 0 0 0 0 0 0 0 0 0 0 0 0 0 0 0 0
0 0 0 0 0 0 0 0 0 0 0 0 0 0 0 0 0 0 0 0 0 0 0 0 0 0 0 0 0 0 0 0 0 0 0 0 0 0 0 0 0 0 0
0 0 0 0 0 0 0 0 0 0 0 0 0 0 0 0 0 0 0 0 0 0 0 0 0 0 0 0 0 0 0 0 0 0 0 0 0 0 0 0 0 0 0
Wind_Speed
3 2 2 2 2 1 2 2 2 3 3 3 3 3 3 2 2 2 1 4 5 6 7 7 7 7 7 7 7 7 7 7 7 7 7 7 7 7 7 7 7 7 7
3 3 2 2 1 1 2 2 3 3 3 2 3 2 2 2 2 2 1 2 4 5 6 7 7 7 7 7 7 7 7 6 7 6 6 6 6 6 6 6 6 6 6
3 3 3 2 2 2 2 2 3 3 3 3 3 2 2 2 2 2 1 1 1 3 5 6 6 6 7 7 7 7 6 5 5 5 5 5 5 5 5 5 5 5 5
4 3 3 2 2 2 2 3 3 2 2 2 2 1 1 1 1 1 1 1 1 1 2 5 5 5 5 6 6 6 5 5 4 4 4 4 5 4 4 4 4 4 4
4 4 3 2 2 2 2 3 3 2 2 2 1 1 1 1 1 1 1 1 1 1 1 2 3 3 3 4 5 5 5 4 4 4 4 4 4 4 4 3 4 3 3
4 4 3 3 3 3 2 2 3 2 2 2 2 2 1 1 0 1 1 1 1 1 1 1 1 1 2 3 3 4 4 4 3 3 3 3 4 4 3 3 3 3 3
4 4 3 3 3 3 3 3 3 3 2 2 2 2 2 2 1 1 0 1 0 1 1 1 1 1 1 2 3 3 4 4 3 3 2 2 4 4 4 4 3 3 3
3 4 4 4 3 3 3 3 3 2 1 1 2 2 0 1 2 1 1 1 1 1 1 2 2 2 1 1 1 2 3 4 4 4 3 3 3 4 4 4 4 4 3
3 4 4 4 4 4 4 4 4 4 3 1 1 2 3 3 1 2 2 1 0 1 1 1 1 2 2 1 1 3 3 4 5 5 4 3 4 4 4 4 5 5 4
3 3 5 5 4 3 4 4 3 3 4 3 1 0 1 2 2 1 2 1 1 2 2 1 2 2 2 1 2 2 3 3 5 5 5 5 4 5 4 4 4 5 5
3 3 4 4 4 3 4 4 4 3 3 3 2 1 1 1 1 2 2 2 2 2 2 2 2 2 2 2 2 3 3 4 5 6 6 6 5 4 5 4 4 4 5
2 3 3 4 4 4 4 4 4 4 3 3 2 2 2 2 2 2 2 2 2 2 2 2 2 2 2 2 3 4 4 5 6 6 7 7 6 5 5 5 5 5 4
2 4 3 3 3 4 4 4 4 4 4 4 4 3 2 2 1 2 1 1 2 2 2 2 3 2 2 2 3 4 5 6 7 8 8 7 6 5 5 6 6 6 5
4 4 4 4 4 4 4 4 4 4 4 4 4 3 2 2 2 2 2 2 1 2 2 4 2 3 2 2 3 4 4 6 7 7 8 7 6 5 5 6 6 6 6
3 4 5 5 5 4 5 5 4 5 4 4 4 4 3 2 2 2 2 2 3 3 4 4 3 2 2 2 3 3 3 6 7 7 7 7 6 6 6 7 7 7 7
3 4 4 5 4 4 4 5 4 4 5 4 3 4 4 2 2 2 2 2 2 3 4 3 3 2 2 3 4 3 4 6 7 8 8 7 7 7 7 7 7 8 8
4 5 5 5 5 5 5 5 5 5 6 5 4 5 5 3 3 2 2 2 2 2 4 3 2 2 3 3 4 3 3 4 4 8 8 8 8 8 8 8 8 8 8
4 5 4 5 5 5 5 5 6 6 7 7 6 5 5 4 4 3 3 3 3 3 3 5 3 2 3 4 3 3 4 3 3 7 9 9 9 9 8 8 9 9 9
4 4 4 5 5 5 5 6 6 7 7 7 7 7 6 6 6 4 4 4 4 3 3 3 3 2 2 2 2 3 4 3 4 5 8 9 10 10 9 10 10 10 9
4 4 4 5 5 5 5 6 6 6 6 7 7 7 7 7 8 7 6 6 4 4 3 3 3 2 2 2 1 2 3 3 4 4 5 7 8 10 10 10 10 10 10
3 4 4 4 4 4 5 5 6 6 6 6 6 7 7 8 9 8 6 6 5 5 4 4 3 2 2 2 3 2 4 3 4 2 3 3 4 4 6 9 10 11 11
2 3 4 4 4 4 6 7 6 5 6 6 6 7 7 8 9 11 11 10 9 7 6 5 5 5 5 4 3 3 3 3 4 2 3 4 3 5 5 5 9 11 12
2 3 3 4 4 5 6 7 7 5 5 5 6 6 5 6 8 7 8 9 9 10 10 7 7 6 5 5 4 4 4 5 5 3 3 5 3 5 4 6 11 12 12
2 3 3 4 4 5 6 7 7 5 4 5 5 5 6 5 6 7 7 7 7 7 8 7 7 6 5 5 6 6 6 4 4 2 2 4 3 4 4 4 9 10 11
2 3 3 3 3 4 6 6 6 3 4 4 5 5 5 6 8 8 7 7 7 6 7 9 8 7 7 7 5 3 3 3 4 3 2 3 3 3 4 4 5 8 9
2 2 2 2 3 3 5 5 5 3 3 3 3 4 7 7 8 9 7 7 7 6 4 5 5 6 5 6 8 6 5 4 3 3 3 3 2 1 3 3 3 3 5
Wind_Direction
129 126 112 100 86 87 99 99 96 91 87 83 79 83 78 74 78 72 71 98 106 122 131 130 124 123 122 122 120 118 119 121 116 115 116 115 112 110 110 105 106 103 100
140 137 126 113 104 105 101 110 109 101 96 90 79 73 72 63 70 73 65 88 103 119 130 135 132 129 127 121 118 117 114 118 119 115 115 118 118 117 115 114 111 109 107
140 138 138 134 126 109 102 100 95 87 92 86 75 64 70 69 75 70 61 49 89 118 126 133 136 132 133 132 126 125 123 118 120 120 119 117 116 117 118 117 114 111 112
138 136 139 142 131 121 119 122 109 97 88 87 81 60 62 75 85 90 80 67 67 84 117 124 129 136 137 140 137 135 133 128 127 130 130 128 125 124 124 136 132 127 125
143 142 143 139 136 129 126 133 121 121 114 95 84 63 53 64 81 100 106 97 98 110 110 116 115 126 142 146 146 143 143 145 144 146 147 150 147 142 140 144 150 151 149
149 143 141 134 133 132 128 132 130 119 128 128 95 55 25 7 346 166 162 137 130 148 135 126 127 138 148 159 160 156 159 154 152 159 162 168 171 164 160 160 146 148 157
155 148 146 148 147 146 148 142 134 129 125 127 96 49 7 4 344 289 205 163 179 193 162 156 162 159 198 184 188 180 180 176 168 169 168 170 181 183 183 183 182 173 159
159 159 155 160 159 149 139 138 135 144 152 151 128 122 31 325 333 325 313 198 208 209 190 185 171 171 187 200 236 216 210 201 194 184 182 184 188 196 198 198 191 183 182
164 166 162 160 164 159 163 164 158 155 169 197 167 151 161 207 281 298 296 278 264 217 212 195 189 193 200 202 229 241 232 226 215 208 206 206 211 206 207 213 207 204 196
167 176 167 165 169 170 171 177 168 167 167 180 211 295 213 161 168 242 294 296 294 270 252 233 214 214 212 214 245 255 247 240 230 224 222 220 226 222 221 222 216 215 214
179 179 174 173 175 179 181 181 176 174 173 180 186 182 132 32 174 175 236 270 288 269 262 251 231 221 223 219 229 243 242 243 235 234 233 229 231 238 233 242 235 228 230
195 185 180 185 186 187 190 194 189 185 191 185 186 180 176 178 191 186 210 232 254 266 274 254 238 227 220 224 232 241 241 245 244 242 244 242 238 249 242 244 253 242 238
211 204 198 197 201 202 197 193 192 197 199 198 202 209 208 212 190 191 196 236 261 276 270 257 237 234 227 222 235 251 244 241 244 243 243 247 249 250 254 246 251 249 243
213 204 202 202 203 206 204 196 198 203 204 209 216 213 213 218 203 195 185 178 243 266 255 253 257 233 233 224 235 240 248 244 242 244 242 247 253 252 257 255 250 247 249
213 201 202 204 204 203 202 197 206 207 206 212 218 218 220 222 216 214 198 188 188 224 242 237 241 247 250 251 249 231 240 255 246 244 245 245 249 249 251 257 253 250 250
211 201 202 207 207 205 204 202 207 209 207 216 215 215 221 225 225 217 216 219 214 219 243 237 240 285 277 277 268 256 240 257 256 251 250 247 245 245 247 254 251 251 248
208 207 206 207 209 209 206 207 212 209 212 218 219 217 219 214 219 221 222 231 231 225 248 265 262 282 271 275 284 280 266 243 248 253 255 253 249 246 249 251 248 245 248
210 209 208 208 212 214 212 212 216 214 213 217 219 220 223 215 217 221 222 229 235 233 236 261 272 265 263 266 273 280 279 266 255 257 257 254 249 246 249 252 248 244 248
214 210 209 212 214 215 217 220 219 218 218 219 218 218 221 215 221 223 226 229 235 241 239 247 264 271 276 285 287 287 285 268 271 267 260 253 247 246 248 251 250 247 248
219 212 215 218 219 217 219 223 222 221 222 223 221 221 222 219 221 221 224 228 230 235 236 240 254 265 271 280 268 272 288 268 268 273 263 263 256 253 252 253 252 252 249
233 219 212 218 222 220 222 221 222 223 224 227 225 225 226 229 229 226 226 221 220 229 233 239 246 250 249 255 248 251 268 285 272 250 257 262 257 247 246 250 250 248 248
238 225 218 216 220 235 247 239 231 223 227 228 229 228 230 232 237 238 238 234 226 224 229 234 242 241 243 245 250 259 271 285 274 243 242 259 243 251 249 239 248 250 246
243 234 231 223 227 242 250 247 244 230 229 227 231 232 234 235 236 230 237 242 239 238 233 228 235 238 238 233 233 245 248 254 259 267 251 259 240 251 254 257 254 250 246
247 244 243 233 235 252 255 250 249 236 231 234 232 230 234 237 233 229 224 227 232 236 237 232 232 234 232 230 226 236 246 263 282 263 238 255 251 253 263 254 252 250 252
258 250 248 237 237 258 263 257 251 227 232 241 242 238 236 237 248 244 231 229 236 243 249 248 248 248 247 244 240 234 237 252 265 257 234 241 257 278 266 250 248 251 255
269 269 274 256 245 253 264 261 253 231 234 241 248 247 248 250 252 247 234 228 234 237 235 244 249 254 246 239 234 222 220 234 256 258 222 227 243 263 277 256 246 251 254